Date,TemperatureHighF,TemperatureAvgF,TemperatureLowF,DewpointHighF,DewpointAvgF,DewpointLowF,HumidityHigh,HumidityAvg,HumidityLow,PressureMaxIn,PressureMinIn,WindSpeedMaxMPH,WindSpeedAvgMPH,GustSpeedMaxMPH,PrecipitationSumIn
2013-7-1,89.8,80.0,76.8,49.5,0.6,-17.8,32,9,2,30.03,29.88,10,2,11,0.00
2013-7-2,88.3,80.5,77.4,48.1,16.2,-17.5,31,15,2,30.18,30.00,9,2,11,2.54
2013-7-3,88.7,80.5,74.8,61.4,15.7,-19.2,45,15,2,30.24,30.15,9,2,10,0.42
2013-7-4,93.0,83.4,77.5,46.8,20.4,-16.6,30,15,2,30.24,30.15,8,3,32,2.96
2013-7-5,97.3,85.3,32.0,45.9,32.8,-18.5,31,19,2,30.24,30.06,115,3,115,0.04
2013-7-6,102.2,88.1,78.3,45.1,26.2,-16.9,30,14,2,30.15,30.00,10,3,13,0.00
2013-7-7,102.0,91.3,0.0,44.5,37.2,-17.0,22,16,2,30.06,29.94,11,4,11,0.00
2013-7-8,96.6,81.7,73.4,42.2,38.2,33.1,29,22,14,30.06,29.94,10,3,13,0.00
2013-7-9,97.7,82.3,72.9,45.7,26.6,-19.5,31,17,2,30.06,29.97,8,2,11,0.00
2013-7-10,95.4,84.3,75.7,64.1,38.3,-18.1,53,25,2,30.03,29.82,12,2,14,0.00
2013-7-11,91.9,81.1,77.4,46.2,33.9,-16.7,30,22,2,29.91,29.82,7,2,11,10.56
2013-7-12,79.0,76.3,74.8,52.5,22.5,-18.8,42,20,2,30.03,29.88,19,7,20,0.00
2013-7-13,88.2,80.8,76.6,75.6,41.5,-16.6,80,33,2,30.27,30.00,11,2,11,0.00
2013-7-14,96.4,86.6,78.6,47.7,35.0,-16.7,30,19,2,30.30,30.21,8,2,11,0.00
2013-7-15,104.2,88.2,77.2,45.2,32.3,-16.8,31,17,2,30.24,30.06,8,3,10,0.00
2013-7-16,100.0,87.4,78.4,45.3,39.3,30.3,29,19,12,30.18,30.09,9,2,10,0.00
2013-7-17,94.8,85.9,77.4,43.2,39.4,35.3,29,20,14,30.15,30.06,9,2,10,2.87
2013-7-18,105.8,89.4,78.1,45.9,41.3,35.9,26,19,11,30.06,29.94,10,2,10,0.00
2013-7-19,104.7,91.2,81.5,46.5,38.9,-14.5,28,18,2,29.97,29.79,13,4,17,2.37
2013-7-20,100.6,88.2,78.4,46.7,41.4,-14.6,29,20,2,29.82,29.71,16,4,16,2.37
2013-7-21,91.9,81.3,74.8,45.9,21.3,-17.7,30,16,2,29.94,29.82,13,3,15,0.00
2013-7-22,85.3,81.3,32.0,49.1,-3.9,-16.7,100,7,2,29.94,29.76,12,3,175,550.40
2013-7-23,93.6,83.2,76.6,68.8,26.9,-18.0,100,20,2,29.79,29.56,9,2,115,5.02
2013-7-24,96.1,81.8,73.0,44.8,38.2,30.8,32,22,14,29.88,29.59,10,3,10,0.00
2013-7-25,73.0,68.3,66.4,37.7,33.3,29.1,33,28,21,30.00,29.88,22,6,115,0.00
2013-7-26,86.4,74.1,67.1,41.9,36.6,32.3,33,26,16,30.03,29.94,9,3,11,0.00
2013-7-27,87.8,76.3,68.0,43.8,35.0,-19.9,33,24,2,30.06,29.94,12,2,12,15.23
2013-7-28,84.0,79.0,70.2,46.7,38.7,-18.1,33,25,2,29.97,29.91,8,2,10,0.00
2013-7-29,81.1,74.4,72.0,61.3,34.0,-20.0,54,30,2,29.97,29.91,3,0,3,0.00